Погода в Стаханове

Россия / Липецкая область     52°39′41″N   37°55′47″E
темп.,
°C
ветер,
м/с
пор.,
м/с
влажн.,
%
обл.,
%
осадки,
мм/ч
давл.,
гПа
погр.,
м
16 сентября, чт
чт1600:00+7сз35655 0.0 101671
03:00+6зсз497321 0.0 1016198
06:00+5ссз36771 0.0 1017106
09:00+9ссз45620 0.0 1018624
12:00+13ссз44425 0.0 10191247
15:00+15ссз44352 0.0 10181472
18:00+12ссз22440 0.0 101826
21:00+8с33569 0.0 101938
17 сентября, пт
пт1700:00+6всв3478100 0.0 102060
03:00+5всв2280100 0.0 102017
06:00+5всв2282100 0.0 101926
09:00+9всв2362100 0.0 1019425
12:00+12всв2151100 0.0 10181061
15:00+13юз1150100 0.0 10171364
18:00+11юз2261100 0.0 1018127
21:00+10всв3661100 0.3 1019488
18 сентября, сб
сб1800:00+8всв4956100 0.4 1020538
03:00+7в51056100 0.4 1020412
06:00+6в51158100 0.0 1021375
09:00+8в71047100 0.0 1021724
12:00+12вюв7836100 0.0 10211225
15:00+14вюв6730100 0.0 10201423
18:00+13вюв4732100 0.0 1020655
21:00+11в4838100 0.0 1020414
19 сентября, вс
вс1900:00+10в61240100 0.0 1019520
03:00+9юв71247100 0.1 1019689
06:00+6вюв61384100 2.3 1018472
09:00+6вюв71491100 8.3 1018503
12:00+6вюв71595100 7.5 1017683
15:00+6вюв71495100 10.6 1016657
18:00+7вюв61195100 0.8 1015583
21:00+7в5997100 1.3 1014431
20 сентября, пн
пн2000:00+7в5997100 0.1 1012408
03:00+7всв4797100 0.1 1011366
06:00+7всв4798100 0.0 1011325
09:00+8всв4797100 0.0 1011390
12:00+10всв6993100 0.0 1010478
15:00+10всв71194100 0.2 1008487
18:00+10всв51098100 5.0 1007344
21:00+11ююз479697 7.1 1007354